[[{"header":{"parameterUnit":"m.s-1","parameterCategory":1,"la1":30.2991,"la2":30.254,"lo1":-89.0895,"lo2":-89.0444,"dy":0.0017,"dx":0.0017,"nx":28,"ny":28,"refTime":"2024-06-04T21:00:00:Z","depth":0,"parameterNumber":2,"parameterNumberName":"U-component_of_WINDS"},"data":[0,0,0,0,0,0,0,0,0,0,0,0,0,0,0,0,0,0,0,0,0,0,0,0,0,0,0,0,0,0,0,0,0,0,0,0,0,0,0,0,0,0,0,0,0,0,0,0,0,0,0,0,0,0,0,0,0,0,4.1499,4.15,0,4.1603,4.1604,4.1605,4.1561,4.1559,4.1556,4.1554,4.166,4.1665,4.167,0,0,0,0,0,0,0,0,0,0,0,0,0,4.126,4.1265,4.1499,4.15,4.1502,4.1603,4.1604,4.1606,4.1562,4.1559,4.1556,4.1553,4.1658,4.1664,4.1671,0,0,0,0,0,0,0,0,0,0,0,0,0,4.1364,4.1266,4.1499,4.1492,4.1492,4.1603,4.1604,4.1606,4.1563,4.1559,4.1555,4.1552,4.1656,4.1664,4.1671,4.1794,0,0,4.1695,4.1698,0,0,0,0,0,0,0,0,4.1358,4.1373,4.1492,4.1493,4.1493,4.1565,4.1559,4.1669,4.1564,4.1536,4.1554,4.155,4.1632,4.1641,4.1669,4.1799,4.1804,4.1696,4.17,4.1704,4.1706,0,0,0,0,0,0,0,4.1351,4.1368,4.154,4.1493,4.1494,4.1483,4.1494,4.158,4.1603,4.1538,4.1535,4.1548,4.1631,4.1662,4.1671,4.1805,4.1696,4.1702,4.1707,4.171,4.2039,4.2043,0,0,0,0,0,0,4.1344,4.1362,4.1537,4.1543,4.1415,4.149,4.1502,4.1546,4.1602,4.1607,4.1551,4.1546,4.165,4.1662,4.1675,4.182,4.1704,4.1711,4.1715,4.2035,4.204,4.2044,0,0,0,0,0,0,4.1339,4.136,4.1533,4.1452,4.1473,4.1498,4.1548,4.155,4.158,4.1612,4.1616,4.1578,4.1648,4.1664,4.1764,4.1823,4.1714,4.1722,4.203,4.2036,4.2042,4.2112,0,0,0,0,0,0,4.1332,4.1359,4.1406,4.1454,4.1478,4.1621,4.1552,4.1555,4.1594,4.1587,4.1638,4.1643,4.1646,4.1753,4.1772,4.1831,4.1728,4.2025,4.2033,4.204,4.2105,4.212,4.2133,0,0,0,0,0,4.1324,4.1422,4.1409,4.143,4.1538,4.1625,4.1638,4.164,4.1599,4.1646,4.1666,4.1641,4.1814,4.1764,4.1785,4.1847,4.2021,4.2031,4.204,4.2098,4.2117,4.2133,0,0,0,0,0,0,4.1381,4.1428,4.1414,4.153,4.1574,4.1617,4.1677,4.166,4.1716,4.1708,4.1707,4.1719,4.1822,4.1845,4.1788,4.1968,4.1911,4.1925,4.1949,4.1967,4.1981,4.1972,4.1734,0,0,0,0,0,4.1407,4.1474,4.1512,4.1611,4.1633,4.1652,4.169,4.1687,4.1732,4.175,4.1778,4.1822,4.1886,4.1928,4.1989,4.2109,4.2118,4.2162,4.2176,4.2188,4.2199,4.2261,4.228,4.2075,4.2074,4.2074,0,0,4.1461,4.1495,4.1538,4.1623,4.1656,4.1725,4.1667,4.1743,4.1793,4.1762,4.1857,4.188,4.1929,4.2039,4.2089,4.2061,4.2258,4.2199,4.2208,4.2213,4.2273,4.2292,4.2309,4.2081,4.208,4.2079,0,0,4.1594,4.1628,4.1713,4.1748,4.1799,4.181,4.1831,4.1877,4.189,4.1987,4.1963,4.2023,4.2134,4.2169,4.2202,4.2348,4.2326,4.2368,4.2441,4.2501,4.2518,4.2532,4.2581,4.2599,4.2379,4.2379,4.238,0,4.1655,4.1758,4.1759,4.1836,4.1873,4.1847,4.1932,4.1966,4.2035,4.206,4.2029,4.2166,4.2197,4.2314,4.2349,4.2378,4.2399,4.2361,4.2515,4.253,4.2543,4.259,4.2609,4.2384,4.2383,4.2383,4.2383,0,4.1829,4.19,4.1963,4.2029,4.2073,4.2154,4.2166,4.2211,4.2205,4.2219,4.2316,4.2354,4.242,4.2448,4.2443,4.2564,4.2544,4.2515,4.2457,4.2567,4.2611,4.2629,4.239,4.2389,4.2387,4.2386,0,0,4.1999,4.2065,4.2087,4.2116,4.217,4.2225,4.2305,4.237,4.2407,4.2455,4.252,4.2614,4.2586,4.2623,4.2621,4.2675,4.2785,4.2638,4.2639,4.2661,4.2917,4.2937,4.2958,4.2772,4.2775,4.2778,4.2911,0,4.2134,4.2273,4.2275,4.2402,4.2467,4.2443,4.2512,4.2552,4.2568,4.2624,4.2642,4.2707,4.2667,4.2688,4.2741,4.276,4.2835,4.2751,4.283,4.2833,4.2815,4.2981,4.3003,4.3127,4.2929,4.2932,4.2934,0,4.231,4.2363,4.2496,4.2539,4.2567,4.2628,4.2687,4.2742,4.2787,4.2794,4.2835,4.2825,4.2905,4.2847,4.2954,4.2897,4.293,4.2944,4.2949,4.2954,4.2888,4.2988,4.3167,4.3184,4.2962,4.2959,4.2957,0,4.2417,4.2523,4.2615,4.2641,4.2694,4.2738,4.2762,4.2803,4.2841,4.2893,4.2917,4.2978,4.301,4.3057,4.3063,4.3021,4.3171,4.3114,4.3177,4.3177,4.3207,4.3205,4.3391,4.3234,4.3233,4.3233,4.3233,0,4.2566,4.2648,4.2663,4.272,4.281,4.2812,4.2901,4.2922,4.2958,4.3017,4.3002,4.3058,4.3064,4.3121,4.3127,4.3214,4.323,4.3236,4.3236,4.3236,4.3235,4.3255,4.3245,4.3238,4.3237,4.3236,4.3235,0,4.27,4.2714,4.2813,4.2856,4.2868,4.2932,4.2968,4.3021,4.3036,4.3111,4.3128,4.315,4.3217,4.3228,4.3307,4.331,4.3413,4.3406,4.3398,4.3396,4.3457,4.345,4.3661,4.3687,4.3516,4.3517,4.3519,0,4.2792,4.2854,4.2904,4.2942,4.2968,4.3031,4.307,4.3075,4.3115,4.317,4.3217,4.3282,4.3333,4.344,4.3463,4.3522,4.3514,4.3584,4.3523,4.352,4.3511,4.3506,4.3511,4.3595,4.3597,4.3598,4.36,0,4.2954,4.2958,4.3014,4.3073,4.312,4.3167,4.3211,4.3243,4.3254,4.33,4.3368,4.3408,4.3488,4.3551,4.3611,4.3634,4.3618,4.3619,4.3636,4.3635,4.3626,4.3628,4.3426,4.3613,4.3612,4.3611,4.361,4.361,4.3068,4.3121,4.3163,4.3226,4.326,4.3301,4.3353,4.3373,4.343,4.3494,4.3494,4.3568,4.3609,4.3687,4.3715,4.3771,4.3749,4.3775,4.3781,4.3786,4.379,4.362,4.3783,4.3782,4.3782,4.3782,4.3781,0,4.3226,4.3252,4.331,4.3372,4.3421,4.3403,4.345,4.3492,4.3557,4.3598,4.3649,4.3725,4.3787,4.3814,4.3874,4.3914,4.3908,4.393,4.3925,4.393,4.3809,4.3786,4.3934,4.3933,4.3933,4.3933,4.3933,4.3933,4.3313,4.3401,4.341,4.3513,4.3539,4.361,4.3639,4.3676,4.3708,4.3794,4.3845,4.3863,4.3898,4.396,4.4015,4.4021,4.4043,4.4067,4.407,4.3955,4.3939,4.3925,4.3903,4.4073,4.4073,4.4186,4.4187,4.4188]},{"header":{"parameterUnit":"m.s-1","parameterCategory":1,"la1":30.2991,"la2":30.254,"lo1":-89.0895,"lo2":-89.0444,"dy":0.0017,"dx":0.0017,"nx":28,"ny":28,"refTime":"2024-06-04T21:00:00:Z","depth":0,"parameterNumber":3,"parameterNumberName":"V-component_of_WINDS"},"data":[0,0,0,0,0,0,0,0,0,0,0,0,0,0,0,0,0,0,0,0,0,0,0,0,0,0,0,0,0,0,0,0,0,0,0,0,0,0,0,0,0,0,0,0,0,0,0,0,0,0,0,0,0,0,0,0,0,0,2.5457,2.5459,0,2.5604,2.5605,2.5607,2.5618,2.5616,2.5614,2.5613,2.5764,2.577,2.5775,0,0,0,0,0,0,0,0,0,0,0,0,0,2.5187,2.5192,2.5457,2.5459,2.5461,2.5603,2.5605,2.5607,2.5618,2.5616,2.5614,2.5612,2.5763,2.5769,2.5776,0,0,0,0,0,0,0,0,0,0,0,0,0,2.5316,2.5194,2.5457,2.5483,2.5487,2.5603,2.5605,2.5608,2.5618,2.5616,2.5613,2.5611,2.576,2.5768,2.5777,2.5877,0,0,2.5802,2.5806,0,0,0,0,0,0,0,0,2.5309,2.5326,2.5477,2.5481,2.5486,2.559,2.5566,2.5698,2.5619,2.5568,2.5613,2.561,2.5708,2.5721,2.5754,2.5884,2.5891,2.5803,2.5808,2.5811,2.5814,0,0,0,0,0,0,0,2.53,2.532,2.5515,2.5479,2.5485,2.5488,2.5503,2.5591,2.565,2.5573,2.5574,2.5591,2.571,2.5746,2.5757,2.5893,2.5803,2.581,2.5815,2.5818,2.6113,2.6115,0,0,0,0,0,0,2.5286,2.5312,2.551,2.5519,2.5389,2.5495,2.5512,2.5559,2.5649,2.5661,2.5593,2.5591,2.5733,2.5748,2.5763,2.5886,2.5811,2.5819,2.5824,2.611,2.6113,2.6116,0,0,0,0,0,0,2.528,2.5303,2.5504,2.5416,2.5442,2.5502,2.5554,2.5563,2.5599,2.5665,2.5675,2.5618,2.5731,2.5751,2.5848,2.5891,2.5823,2.5831,2.6106,2.6111,2.6115,2.6133,0,0,0,0,0,0,2.5272,2.5301,2.534,2.5417,2.5447,2.5587,2.5557,2.5568,2.5613,2.5611,2.5691,2.5702,2.5731,2.5836,2.5857,2.5902,2.5837,2.6103,2.6108,2.6113,2.6129,2.6138,2.6145,0,0,0,0,0,2.5262,2.5339,2.5341,2.5365,2.5496,2.559,2.5607,2.5638,2.5616,2.5656,2.5698,2.5699,2.5883,2.5846,2.5869,2.5917,2.61,2.6107,2.6113,2.6126,2.6136,2.6145,0,0,0,0,0,0,2.5266,2.535,2.5353,2.5458,2.5516,2.5591,2.5642,2.5648,2.5715,2.5711,2.5747,2.5765,2.5862,2.5899,2.5856,2.6019,2.5989,2.6001,2.5991,2.6002,2.6009,2.5998,2.5844,0,0,0,0,0,2.5279,2.5348,2.5418,2.5503,2.5532,2.5582,2.5624,2.5643,2.5706,2.5731,2.578,2.5841,2.5913,2.5959,2.6029,2.6135,2.6152,2.6179,2.6187,2.6193,2.6203,2.6262,2.6274,2.6137,2.6137,2.6137,0,0,2.5307,2.5361,2.5403,2.5505,2.5553,2.5624,2.5603,2.5679,2.5732,2.5742,2.5837,2.5876,2.5946,2.6048,2.6096,2.6082,2.6245,2.6201,2.6206,2.6212,2.6269,2.6282,2.6294,2.6141,2.6141,2.614,0,0,2.5393,2.5441,2.5518,2.5566,2.5638,2.5671,2.5689,2.5763,2.5789,2.5884,2.5893,2.5957,2.6079,2.6129,2.617,2.6275,2.6279,2.6297,2.6338,2.6395,2.6406,2.6416,2.6453,2.6466,2.6306,2.6306,2.6306,0,2.5419,2.5525,2.5556,2.5632,2.5677,2.5689,2.5766,2.5812,2.5903,2.5934,2.5918,2.6071,2.612,2.6233,2.6259,2.6292,2.6314,2.6288,2.6402,2.6412,2.6421,2.6457,2.6471,2.6307,2.6307,2.6307,2.6307,0,2.5553,2.5627,2.568,2.5767,2.5818,2.5894,2.5937,2.5985,2.5999,2.6033,2.613,2.6188,2.6269,2.6298,2.6313,2.6414,2.6403,2.6394,2.6365,2.6436,2.647,2.6484,2.631,2.6309,2.6309,2.6308,0,0,2.5647,2.575,2.5769,2.5808,2.5889,2.5947,2.6023,2.6102,2.6142,2.6205,2.627,2.6373,2.6365,2.6412,2.6432,2.6482,2.6561,2.6467,2.6469,2.6482,2.6676,2.6682,2.6698,2.6564,2.6566,2.6569,2.667,0,2.5743,2.5879,2.5909,2.6026,2.6095,2.6107,2.6174,2.623,2.6264,2.6327,2.6365,2.6437,2.6421,2.6449,2.6499,2.6541,2.66,2.6534,2.6625,2.6628,2.6607,2.6716,2.6724,2.6816,2.6684,2.6686,2.6688,0,2.5873,2.5938,2.6062,2.6133,2.6163,2.6222,2.6296,2.6357,2.6421,2.6442,2.6494,2.6509,2.6589,2.6556,2.6667,2.6621,2.666,2.6686,2.6691,2.6701,2.6662,2.6729,2.6847,2.6861,2.6709,2.6707,2.6706,0,2.5929,2.6047,2.6137,2.617,2.6255,2.6297,2.6334,2.6396,2.6441,2.6507,2.6536,2.661,2.6651,2.6708,2.6742,2.6714,2.6851,2.682,2.6871,2.687,2.6899,2.6897,2.7025,2.6924,2.6924,2.6923,2.6923,0,2.6033,2.6109,2.6163,2.6218,2.6303,2.6337,2.642,2.6457,2.6512,2.6575,2.659,2.6649,2.6691,2.6755,2.6783,2.6871,2.6889,2.6908,2.6915,2.6907,2.6905,2.6934,2.6928,2.6927,2.6926,2.6926,2.6925,0,2.611,2.615,2.6248,2.632,2.634,2.64,2.6461,2.6516,2.6549,2.6628,2.6649,2.6702,2.6779,2.6819,2.6915,2.6933,2.7032,2.7035,2.701,2.7013,2.7062,2.7056,2.7213,2.7235,2.7119,2.712,2.7121,0,2.6174,2.6233,2.631,2.6353,2.6391,2.646,2.6506,2.6541,2.6589,2.6666,2.6711,2.6788,2.6852,2.6974,2.7021,2.7095,2.7099,2.7149,2.7111,2.7101,2.71,2.7097,2.7103,2.7156,2.7157,2.7158,2.7159,0,2.6283,2.63,2.6365,2.6438,2.6493,2.6552,2.661,2.6644,2.6688,2.6741,2.6819,2.6869,2.6966,2.7043,2.712,2.7159,2.7167,2.717,2.7186,2.7179,2.7162,2.7172,2.7029,2.7167,2.7166,2.7165,2.7165,2.7165,2.6356,2.6408,2.6471,2.6544,2.6591,2.6645,2.6699,2.6739,2.6805,2.6887,2.6904,2.6986,2.7049,2.7153,2.7194,2.7259,2.7249,2.7272,2.7278,2.7283,2.7285,2.7151,2.7274,2.7273,2.7273,2.7273,2.7273,0,2.6466,2.6507,2.6573,2.6654,2.6711,2.6712,2.6777,2.6825,2.6897,2.6955,2.7017,2.7107,2.7181,2.7234,2.731,2.7352,2.7357,2.7371,2.7368,2.7377,2.729,2.7269,2.7365,2.7365,2.7365,2.7365,2.7365,2.7365,2.653,2.6619,2.6642,2.6754,2.6795,2.6876,2.6912,2.6962,2.7008,2.7108,2.7169,2.7203,2.7259,2.7339,2.7407,2.742,2.7448,2.7461,2.7475,2.7393,2.7383,2.7374,2.7354,2.7466,2.7467,2.7556,2.7557,2.7558]}]]